Location: Aulagny
(45.1643°N, 4.3096°E)
Time: 18:59:51
(UTC+00:00)

Okean 3 Rocket - Pass Details

Date: 21 October 2019
Orbit: 614 x 645 km, 82.5° (Epoch: 20 November)

Event Time Altitude Azimuth Distance (km) Brightness Sun altitude
Rises 18:53:55 0° 352° (N) 2,962 7.2 -22.8°
Reaches altitude 10° 18:56:11 10° 354° (N) 2,044 6.4 -23.2°
Enters shadow 19:00:14 67° 24° (NNE) 695 3.6 -23.9°
